Flag for Marshall Islands Weather past 2 weeks in Kwajalein, Marshall Islands

Now
82 °F

Sunny.


Feels Like: 89 °F
Forecast: 79 / 86 °F
Wind: 9 mph from East

Location: Kwajalein / Bucholz

Current Time: Aug 2, 2015 at 9:20:15 AM

Latest Report: Aug 2, 2015 at 9:00 AM


Visibility: 10 mi

Pressure: 29.84 "Hg

Humidity: 79%

Dew point: 75 °F

Location of KwajaleinLocation

Historic Weather in Kwajalein — Graph

°F

Kwajalein temperature yesterday

Maximum temperature yesterday: 89 °F (at 2:00 PM)
Minimum temperature yesterday: 80 °F (at 12:00 AM)
Average temperature yesterday: 83 °F

Past Weeks' High & Low Weather Summary

 TemperatureHumidityPressure
High90 °F (Jul 30, 2:01 PM)93% (Jul 18, 10:00 AM)29.94 "Hg (Jul 18, 10:00 AM)
Low77 °F (Jul 18, 11:00 AM)61% (Jul 21, 4:00 PM)29.67 "Hg (Jul 30, 3:21 PM)
Average83 °F75%29.82 "Hg
* Reported Jul 18 8:00 AM — Aug 2 8:20 AM, Kwajalein, Weather by CustomWeather, © 2015

Note: Actual official high and low records may vary slightly from our data, if they occured in-between our weather recording intervals... More about our weather records

Advertising

Kwajalein weather history for previous 24 hours

 ConditionsComfort  
Time TempWeatherWind HumidityBarometerVisibility
8:20 AM
Sun, Aug 2
81 °FSunny.8 mph81%29.84 "Hg10 mi
8:00 AM80 °FSunny.8 mph82%29.84 "Hg10 mi
7:40 AM80 °FSunny.8 mph84%29.82 "Hg10 mi
7:20 AM80 °FSunny.8 mph84%29.81 "Hg10 mi
7:00 AM80 °FSunny.13 mph85%29.80 "Hg10 mi
6:20 AM79 °FClear.13 mph87%29.79 "Hg10 mi
6:00 AM79 °FPassing clouds.13 mph88%29.80 "Hg10 mi
5:20 AM79 °FPartly cloudy.9 mph89%29.78 "Hg10 mi
5:00 AM78 °FDrizzle. Mostly cloudy.9 mph89%29.78 "Hg10 mi
4:40 AM78 °FMostly cloudy.13 mph90%29.79 "Hg10 mi
4:20 AM78 °FPartly cloudy.13 mph90%29.78 "Hg10 mi
4:00 AM78 °FPassing clouds.13 mph90%29.79 "Hg10 mi
3:00 AM79 °FLight rain. Clear.13 mph90%29.79 "Hg10 mi
2:40 AM79 °FPassing clouds.12 mph90%29.79 "Hg10 mi
2:20 AM79 °FPartly cloudy.7 mph91%29.80 "Hg10 mi
2:00 AM79 °FRain. Overcast.3 mph91%29.80 "Hg10 mi
1:40 AM79 °FPartly cloudy.5 mph90%29.81 "Hg10 mi
1:20 AM79 °FPassing clouds.5 mph91%29.82 "Hg10 mi
1:00 AM80 °FPartly cloudy.6 mph90%29.82 "Hg10 mi
12:40 AM80 °FPartly cloudy.7 mph89%29.82 "Hg10 mi
12:20 AM81 °FDrizzle. Overcast.7 mph88%29.84 "Hg10 mi
12:00 AM81 °FRain. Overcast.3 mph86%29.83 "Hg5 mi
11:40 PM
Sat, Aug 1
81 °FLight rain. Overcast.No wind85%29.83 "Hg5 mi
11:20 PM82 °FMostly cloudy.5 mph84%29.83 "Hg10 mi
11:00 PM81 °FDrizzle. Mostly cloudy.6 mph84%29.83 "Hg7 mi
10:20 PM81 °FPartly cloudy.3 mph84%29.82 "Hg10 mi
10:00 PM81 °FClear.No wind84%29.82 "Hg10 mi
9:40 PM81 °FPassing clouds.No wind84%29.81 "Hg10 mi
9:20 PM82 °FPassing clouds.No wind83%29.80 "Hg10 mi
9:00 PM82 °FClear.5 mph84%29.79 "Hg10 mi
8:40 PM82 °FClear.3 mph83%29.79 "Hg10 mi
8:20 PM82 °FClear.3 mph83%29.78 "Hg10 mi
8:00 PM82 °FPassing clouds.6 mph83%29.77 "Hg10 mi
7:20 PM82 °FRain. Clear.No wind81%29.77 "Hg10 mi
7:00 PM82 °FSunny.No wind81%29.76 "Hg10 mi
6:40 PM83 °FSunny.5 mph81%29.75 "Hg10 mi
6:20 PM83 °FBroken clouds.3 mph81%29.75 "Hg10 mi
6:00 PM83 °FMostly cloudy.5 mph81%29.75 "Hg10 mi
5:20 PM82 °FPartly sunny.No wind82%29.73 "Hg10 mi
5:00 PM83 °FPartly sunny.No wind81%29.73 "Hg10 mi
4:20 PM83 °FDrizzle. Mostly cloudy.3 mph82%29.73 "Hg10 mi
4:00 PM83 °FRain. Mostly cloudy.7 mph81%29.74 "Hg5 mi
3:20 PM84 °FDrizzle. Broken clouds.7 mph78%29.75 "Hg10 mi
3:00 PM86 °FLight rain. Broken clouds.9 mph75%29.75 "Hg10 mi
2:40 PM87 °FScattered clouds.12 mph72%29.75 "Hg10 mi
2:20 PM88 °FLight rain. Broken clouds.13 mph70%29.75 "Hg5 mi
2:00 PM89 °FScattered clouds.13 mph67%29.74 "Hg10 mi
1:40 PM88 °FScattered clouds.15 mph68%29.75 "Hg10 mi
1:20 PM88 °FBroken clouds.14 mph69%29.76 "Hg10 mi
1:00 PM87 °FScattered clouds.12 mph70%29.77 "Hg10 mi
12:20 PM87 °FScattered clouds.13 mph71%29.78 "Hg10 mi
12:00 PM87 °FBroken clouds.12 mph71%29.79 "Hg10 mi
11:40 AM87 °FScattered clouds.10 mph70%29.79 "Hg10 mi
11:20 AM88 °FScattered clouds.10 mph70%29.79 "Hg10 mi
11:00 AM87 °FScattered clouds.12 mph71%29.80 "Hg10 mi
10:40 AM87 °FScattered clouds.13 mph71%29.79 "Hg10 mi
10:20 AM86 °FScattered clouds.13 mph73%29.79 "Hg10 mi
9:40 AM85 °FBroken clouds.13 mph77%29.79 "Hg10 mi
9:20 AM84 °FBroken clouds.10 mph77%29.79 "Hg10 mi
9:00 AM83 °FPartly sunny.12 mph79%29.78 "Hg10 mi
Weather by CustomWeather, © 2015

See weather overviewHow to use our weather pages